This is the latest recevied weather packets stored in our database for station/object R2BLN-13. If no packets are shown the sender has not sent any weather packets the latest 10 day(s).
| Time | Temp. | Humidity | Pressure | Rain* | Wind** | Luminosity | Snow |
|---|---|---|---|---|---|---|---|
| 1787838769 | 17.22° C | 56% | 1002.2 hPa | - | - | - | - |
| 1787838168 | 17.78° C | 52% | 1002.1 hPa | - | - | - | - |
| 1787837568 | 19.44° C | 50% | 1001.9 hPa | - | - | - | - |
| 1787836968 | 19.44° C | 50% | 1002 hPa | - | - | - | - |
| 1787836368 | 18.89° C | 53% | 1002 hPa | - | - | - | - |
| 1787835768 | 18.89° C | 51% | 1002 hPa | - | - | - | - |
| 1787835168 | 19.44° C | 53% | 1001.9 hPa | - | - | - | - |
| 1787834568 | 18.89° C | 51% | 1002 hPa | - | - | - | - |
| 1787833968 | 19.44° C | 49% | 1002 hPa | - | - | - | - |
| 1787833368 | 20.56° C | 48% | 1002.1 hPa | - | - | - | - |
| 1787832768 | 21.11° C | 48% | 1002.2 hPa | - | - | - | - |
| 1787832168 | 20.56° C | 46% | 1002.2 hPa | - | - | - | - |
| 1787831568 | 20.56° C | 49% | 1002.2 hPa | - | - | - | - |
| 1787830958 | 20.56° C | 51% | 1002.3 hPa | - | - | - | - |
| 1787830338 | 20° C | 51% | 1002.4 hPa | - | - | - | - |
| 1787829738 | 20° C | 52% | 1002.4 hPa | - | - | - | - |
| 1787829138 | 19.44° C | 51% | 1002.4 hPa | - | - | - | - |
| 1787828538 | 20° C | 49% | 1002.4 hPa | - | - | - | - |
| 1787827938 | 20.56° C | 47% | 1002.3 hPa | - | - | - | - |
| 1787827340 | 21.11° C | 48% | 1002.3 hPa | - | - | - | - |
| 1787826738 | 21.11° C | 47% | 1002.3 hPa | - | - | - | - |
| 1787826138 | 22.22° C | 44% | 1002.3 hPa | - | - | - | - |
| 1787825538 | 21.67° C | 45% | 1002.4 hPa | - | - | - | - |
| 1787824938 | 21.67° C | 45% | 1002.4 hPa | - | - | - | - |
| 1787824338 | 20.56° C | 47% | 1002.4 hPa | - | - | - | - |
* Rain since midnight (hover to see other rain measurements)
** Current wind speed in m/s (hover to see current wind gust speed)